,,,PA_Meas_PMT16A,,PR_Meas_QMR101_102,,RH_Meas_QMH101,,SR_Meas_QMS101,,TA_Meas_QMH101,,GenWind,,GenWind,
date,time,status,PA,status,PR,status,RH,status,SR,status,TA,status,DirAvg,status,SpdAvg,
2012-03-04, 00:00:04,VALID,1000.95,VALID,0,VALID,82.6894,VALID,0.0815089,VALID,26.0771,VALID,358,VALID,0.817187,
2012-03-04, 00:01:04,VALID,1000.94,VALID,0,VALID,82.8115,VALID,0.0815089,VALID,26.0791,VALID,20,VALID,0.457422,
2012-03-04, 00:02:04,VALID,1000.92,VALID,0,VALID,82.6513,VALID,0.0815089,VALID,25.9992,VALID,84,VALID,0.530078,
2012-03-04, 00:03:04,VALID,1000.91,VALID,0,VALID,82.6742,VALID,0,VALID,25.9797,VALID,11,VALID,1.53633,
2012-03-04, 00:04:04,VALID,1000.92,VALID,0,VALID,82.4911,VALID,0,VALID,26.0381,VALID,26,VALID,1.02109,
2012-03-04, 00:05:04,VALID,1000.95,VALID,0,VALID,82.4835,VALID,0,VALID,26.0576,VALID,28,VALID,0.427734,
2012-03-04, 00:06:04,VALID,1000.94,VALID,0,VALID,82.7581,VALID,0,VALID,26.0596,VALID,26,VALID,0.539453,
2012-03-04, 00:07:04,VALID,1000.96,VALID,0,VALID,82.7428,VALID,0,VALID,26.0381,VALID,63,VALID,0.476172,
2012-03-04, 00:08:04,VALID,1000.95,VALID,0,VALID,82.6742,VALID,0,VALID,26.0187,VALID,68,VALID,0.768359,
2012-03-04, 00:09:04,VALID,1000.96,VALID,0,VALID,82.636,VALID,0.0815089,VALID,26.0596,VALID,86,VALID,0.934375,
2012-03-04, 00:10:04,VALID,1000.92,VALID,0,VALID,82.514,VALID,0,VALID,26.0401,VALID,11,VALID,0.668359,
2012-03-04, 00:11:04,VALID,1000.92,VALID,0,VALID,82.514,VALID,0,VALID,26.0401,VALID,90,VALID,0.985937,
2012-03-04, 00:12:04,VALID,1000.88,VALID,0,VALID,82.6513,VALID,0,VALID,26.0616,VALID,106,VALID,0.755469,
2012-03-04, 00:13:04,VALID,1000.86,VALID,0,VALID,82.6055,VALID,0,VALID,26.0421,VALID,74,VALID,1.00352,
2012-03-04, 00:14:04,VALID,1000.85,VALID,0,VALID,82.6894,VALID,0,VALID,26.0226,VALID,67,VALID,1.30664,
2012-03-04, 00:15:04,VALID,1000.9,VALID,0,VALID,82.7962,VALID,0,VALID,26.0012,VALID,51,VALID,0.129297,
2012-03-04, 00:16:04,VALID,1000.89,VALID,0,VALID,83.0404,VALID,0,VALID,25.9622,VALID,99,VALID,0.784375,
2012-03-04, 00:17:04,VALID,1000.89,VALID,0,VALID,83.0632,VALID,0,VALID,25.9447,VALID,77,VALID,1.2293,
2012-03-04, 00:18:04,VALID,1000.92,VALID,0,VALID,83.3684,VALID,0,VALID,25.9038,VALID,83,VALID,0.319531,
2012-03-04, 00:19:04,VALID,1000.91,VALID,0,VALID,83.4752,VALID,0,VALID,25.8648,VALID,103,VALID,1.09023,
2012-03-04, 00:20:04,VALID,1000.9,VALID,0,VALID,83.582,VALID,0,VALID,25.8843,VALID,91,VALID,0.766797,
2012-03-04, 00:21:04,VALID,1000.84,VALID,0,VALID,83.5515,VALID,0,VALID,25.8453,VALID,61,VALID,1.05703,
2012-03-04, 00:22:04,VALID,1000.91,VALID,0,VALID,83.7956,VALID,0,VALID,25.8453,VALID,30,VALID,0.346094,
2012-03-04, 00:23:04,VALID,1000.89,VALID,0,VALID,83.788,VALID,0,VALID,25.8259,VALID,81,VALID,0.9375,
2012-03-04, 00:24:04,VALID,1000.92,VALID,0,VALID,83.9863,VALID,0.0815089,VALID,25.8239,VALID,54,VALID,0.695703,
2012-03-04, 00:25:04,VALID,1000.87,VALID,0,VALID,83.9101,VALID,0.0815089,VALID,25.8239,VALID,81,VALID,1.27383,
2012-03-04, 00:26:04,VALID,1000.85,VALID,0,VALID,84.0397,VALID,0,VALID,25.8239,VALID,14,VALID,1.06562,
2012-03-04, 00:27:04,VALID,1000.85,VALID,0,VALID,84.2152,VALID,0,VALID,25.8453,VALID,29,VALID,0.360156,
2012-03-04, 00:28:04,VALID,1000.85,VALID,0,VALID,84.2076,VALID,0,VALID,25.8064,VALID,64,VALID,0.792188,
2012-03-04, 00:29:04,VALID,1000.86,VALID,0,VALID,84.2991,VALID,0,VALID,25.7655,VALID,74,VALID,0.932422,
2012-03-04, 00:30:04,VALID,1000.85,VALID,0,VALID,84.5204,VALID,0,VALID,25.7265,VALID,92,VALID,0.835547,
2012-03-04, 00:31:04,VALID,1000.86,VALID,0,VALID,84.6729,VALID,0,VALID,25.7265,VALID,45,VALID,0.410547,
2012-03-04, 00:32:04,VALID,1000.86,VALID,0,VALID,84.8637,VALID,0,VALID,25.7071,VALID,74,VALID,0.348047,
2012-03-04, 00:33:04,VALID,1000.82,VALID,0,VALID,85.1002,VALID,0,VALID,25.6895,VALID,74,VALID,0.196484,
2012-03-04, 00:34:04,VALID,1000.82,VALID,0,VALID,85.2756,VALID,0.0815089,VALID,25.6486,VALID,41,VALID,0,
2012-03-04, 00:35:04,VALID,1000.81,VALID,0,VALID,85.3748,VALID,0,VALID,25.6506,VALID,91,VALID,0.949609,
2012-03-04, 00:36:04,VALID,1000.8,VALID,0,VALID,85.4892,VALID,0.0815089,VALID,25.6292,VALID,88,VALID,0.728906,
2012-03-04, 00:37:04,VALID,1000.8,VALID,0,VALID,85.5426,VALID,0,VALID,25.6506,VALID,86,VALID,0.433984,
2012-03-04, 00:38:04,VALID,1000.78,VALID,0,VALID,85.5579,VALID,0,VALID,25.6292,VALID,110,VALID,0.95,
2012-03-04, 00:39:04,VALID,1000.74,VALID,0,VALID,85.6418,VALID,0,VALID,25.6486,VALID,85,VALID,0.491016,
2012-03-04, 00:40:04,VALID,1000.73,VALID,0,VALID,85.7028,VALID,0,VALID,25.6292,VALID,75,VALID,0.900781,
2012-03-04, 00:41:04,VALID,1000.73,VALID,0,VALID,85.6876,VALID,0,VALID,25.6292,VALID,41,VALID,0.519531,
2012-03-04, 00:42:04,VALID,1000.71,VALID,0,VALID,85.741,VALID,0,VALID,25.6292,VALID,74,VALID,0.407813,
2012-03-04, 00:43:04,VALID,1000.69,VALID,0,VALID,85.947,VALID,0,VALID,25.6097,VALID,30,VALID,0.350781,
2012-03-04, 00:44:04,VALID,1000.67,VALID,0,VALID,86.4047,VALID,0,VALID,25.6116,VALID,31,VALID,0.339844,
2012-03-04, 00:45:04,VALID,1000.61,VALID,0,VALID,86.4962,VALID,0,VALID,25.67,VALID,80,VALID,0.636328,
2012-03-04, 00:46:04,VALID,1000.58,VALID,0,VALID,86.4047,VALID,0,VALID,25.6876,VALID,43,VALID,0.339844,
2012-03-04, 00:47:04,VALID,1000.59,VALID,0,VALID,86.3971,VALID,0.0815089,VALID,25.7265,VALID,63,VALID,0.651172,
2012-03-04, 00:48:04,VALID,1000.53,VALID,0,VALID,86.3513,VALID,0.0815089,VALID,25.785,VALID,20,VALID,0.661328,
2012-03-04, 00:49:04,VALID,1000.54,VALID,0,VALID,86.1377,VALID,0.0815089,VALID,25.8453,VALID,30,VALID,0.898047,
2012-03-04, 00:50:04,VALID,1000.53,VALID,0,VALID,85.9851,VALID,0,VALID,25.8629,VALID,13,VALID,0.380469,
2012-03-04, 00:51:04,VALID,1000.52,VALID,0,VALID,85.8707,VALID,0.0815089,VALID,25.9018,VALID,14,VALID,0.414844,
2012-03-04, 00:52:04,VALID,1000.51,VALID,0,VALID,85.6952,VALID,0,VALID,25.9408,VALID,58,VALID,1.59727,
2012-03-04, 00:53:04,VALID,1000.53,VALID,0,VALID,85.3061,VALID,0.0815089,VALID,25.9992,VALID,45,VALID,0.55,
2012-03-04, 00:54:04,VALID,1000.52,VALID,0,VALID,85.1307,VALID,0,VALID,26.0206,VALID,14,VALID,1.00937,
2012-03-04, 00:55:04,VALID,1000.52,VALID,0,VALID,85.0696,VALID,0,VALID,26.0596,VALID,45,VALID,0.45,
2012-03-04, 00:56:04,VALID,1000.49,VALID,0,VALID,85.0468,VALID,0,VALID,26.0401,VALID,26,VALID,0.459766,
2012-03-04, 00:57:04,VALID,1000.52,VALID,0,VALID,85.1307,VALID,0,VALID,26.0401,VALID,29,VALID,0.197656,
2012-03-04, 00:58:04,VALID,1000.53,VALID,0,VALID,85.1459,VALID,0,VALID,26.0421,VALID,72,VALID,0.807422,
2012-03-04, 00:59:04,VALID,1000.51,VALID,0,VALID,85.062,VALID,0,VALID,26.0401,VALID,2,VALID,0.885156,
2012-03-04, 01:00:04,VALID,1000.53,VALID,0,VALID,85.0391,VALID,0,VALID,26.081,VALID,34,VALID,0.767969,
2012-03-04, 01:01:04,VALID,1000.51,VALID,0,VALID,85.1078,VALID,0,VALID,26.0791,VALID,32,VALID,0.836328,
2012-03-04, 01:02:04,VALID,1000.5,VALID,0,VALID,85.0773,VALID,0,VALID,26.0616,VALID,13,VALID,0.844922,
2012-03-04, 01:03:04,VALID,1000.55,VALID,0,VALID,85.1841,VALID,0,VALID,26.0616,VALID,46,VALID,0.792969,
2012-03-04, 01:04:04,VALID,1000.55,VALID,0,VALID,85.123,VALID,0,VALID,26.0401,VALID,76,VALID,0.848437,
2012-03-04, 01:05:04,VALID,1000.56,VALID,0,VALID,84.9552,VALID,0,VALID,26.081,VALID,21,VALID,0.630078,
2012-03-04, 01:06:04,VALID,1000.58,VALID,0,VALID,84.9018,VALID,0,VALID,26.0791,VALID,31,VALID,1.14766,
2012-03-04, 01:07:04,VALID,1000.55,VALID,0,VALID,84.8103,VALID,0,VALID,26.081,VALID,37,VALID,0.488672,
2012-03-04, 01:08:04,VALID,1000.53,VALID,0,VALID,84.795,VALID,0,VALID,26.0791,VALID,17,VALID,0.79375,
2012-03-04, 01:09:04,VALID,1000.53,VALID,0,VALID,84.7263,VALID,0,VALID,26.12,VALID,68,VALID,1.06562,
2012-03-04, 01:10:04,VALID,1000.52,VALID,0,VALID,84.6806,VALID,0,VALID,26.0985,VALID,63,VALID,0.717578,
2012-03-04, 01:11:04,VALID,1000.5,VALID,0,VALID,84.6272,VALID,0,VALID,26.0966,VALID,62,VALID,0.362109,
2012-03-04, 01:12:04,VALID,1000.52,VALID,0,VALID,84.6119,VALID,0,VALID,26.118,VALID,31,VALID,0.614062,
2012-03-04, 01:13:04,VALID,1000.51,VALID,0,VALID,84.6577,VALID,0,VALID,26.0985,VALID,26,VALID,0.682813,
2012-03-04, 01:14:04,VALID,1000.5,VALID,0,VALID,84.8026,VALID,0,VALID,26.0576,VALID,16,VALID,0.941797,
2012-03-04, 01:15:04,VALID,1000.48,VALID,0,VALID,84.8484,VALID,0,VALID,26.0791,VALID,35,VALID,0.629297,
2012-03-04, 01:16:04,VALID,1000.49,VALID,0,VALID,84.9171,VALID,0,VALID,26.0401,VALID,33,VALID,0.487891,
2012-03-04, 01:17:04,VALID,1000.47,VALID,0,VALID,85.062,VALID,0,VALID,25.9992,VALID,32,VALID,0.428906,
2012-03-04, 01:18:04,VALID,1000.46,VALID,0,VALID,85.3138,VALID,0,VALID,25.9817,VALID,36,VALID,0.331641,
2012-03-04, 01:19:04,VALID,1000.46,VALID,0,VALID,85.4206,VALID,0,VALID,25.9427,VALID,36,VALID,0.202344,
2012-03-04, 01:20:04,VALID,1000.41,VALID,0,VALID,85.5274,VALID,0,VALID,25.9232,VALID,32,VALID,0.672266,
2012-03-04, 01:21:04,VALID,1000.38,VALID,0,VALID,85.6037,VALID,0,VALID,25.9038,VALID,51,VALID,0.478125,
2012-03-04, 01:22:04,VALID,1000.44,VALID,0,VALID,85.741,VALID,0,VALID,25.9057,VALID,25,VALID,0.278125,
2012-03-04, 01:23:04,VALID,1000.38,VALID,0,VALID,85.802,VALID,0,VALID,25.8648,VALID,25,VALID,0,
2012-03-04, 01:24:04,VALID,1000.41,VALID,0,VALID,85.9622,VALID,0,VALID,25.8453,VALID,39,VALID,0.664844,
2012-03-04, 01:25:04,VALID,1000.42,VALID,0,VALID,85.947,VALID,0,VALID,25.8259,VALID,31,VALID,0.404297,
2012-03-04, 01:26:04,VALID,1000.4,VALID,0,VALID,86.0156,VALID,0,VALID,25.8064,VALID,31,VALID,0.541797,
2012-03-04, 01:27:04,VALID,1000.4,VALID,0,VALID,86.214,VALID,0,VALID,25.8064,VALID,20,VALID,0.436719,
2012-03-04, 01:28:04,VALID,1000.41,VALID,0,VALID,86.0995,VALID,0,VALID,25.7869,VALID,20,VALID,0.152344,
2012-03-04, 01:29:04,VALID,1000.38,VALID,0,VALID,86.1529,VALID,0,VALID,25.7869,VALID,18,VALID,0.616016,
2012-03-04, 01:30:04,VALID,1000.4,VALID,0,VALID,86.1606,VALID,0,VALID,25.7889,VALID,17,VALID,0.0949219,
2012-03-04, 01:31:04,VALID,1000.37,VALID,0,VALID,86.1682,VALID,0,VALID,25.7674,VALID,17,VALID,0.55,
2012-03-04, 01:32:04,VALID,1000.39,VALID,0,VALID,86.2903,VALID,0,VALID,25.6876,VALID,17,VALID,0.40625,
2012-03-04, 01:33:04,VALID,1000.41,VALID,0,VALID,86.5268,VALID,0,VALID,25.6506,VALID,17,VALID,0.296875,
2012-03-04, 01:34:04,VALID,1000.4,VALID,0,VALID,86.8167,VALID,0,VALID,25.6116,VALID,17,VALID,0.344531,
2012-03-04, 01:35:04,VALID,1000.36,VALID,0,VALID,87.0684,VALID,0,VALID,25.5727,VALID,10,VALID,0.568359,
2012-03-04, 01:36:04,VALID,1000.34,VALID,0,VALID,87.2668,VALID,0,VALID,25.5532,VALID,21,VALID,0.835547,
2012-03-04, 01:37:04,VALID,1000.32,VALID,0,VALID,87.1066,VALID,0,VALID,25.5921,VALID,22,VALID,0.263281,
2012-03-04, 01:38:04,VALID,1000.29,VALID,0,VALID,87.0379,VALID,0,VALID,25.5337,VALID,22,VALID,0.252344,
2012-03-04, 01:39:04,VALID,1000.32,VALID,0,VALID,87.2439,VALID,0,VALID,25.4928,VALID,22,VALID,0.480859,
2012-03-04, 01:40:04,VALID,1000.26,VALID,0,VALID,87.4651,VALID,0,VALID,25.4753,VALID,22,VALID,0.424609,
2012-03-04, 01:41:04,VALID,1000.28,VALID,0,VALID,87.6406,VALID,0,VALID,25.4558,VALID,22,VALID,0.320703,
2012-03-04, 01:42:04,VALID,1000.24,VALID,0,VALID,87.7169,VALID,0,VALID,25.4363,VALID,22,VALID,0.440625,
2012-03-04, 01:43:04,VALID,1000.19,VALID,0,VALID,87.9152,VALID,0,VALID,25.4169,VALID,35,VALID,0.511719,
2012-03-04, 01:44:04,VALID,1000.19,VALID,0,VALID,87.9534,VALID,0,VALID,25.4363,VALID,38,VALID,0.394922,
2012-03-04, 01:45:04,VALID,1000.16,VALID,0,VALID,88.1365,VALID,0,VALID,25.4577,VALID,80,VALID,0.596484,
2012-03-04, 01:46:04,VALID,1000.15,VALID,0,VALID,87.9991,VALID,0,VALID,25.4363,VALID,77,VALID,0.489453,
2012-03-04, 01:47:04,VALID,1000.19,VALID,0,VALID,87.9686,VALID,0,VALID,25.4558,VALID,47,VALID,0.732031,
2012-03-04, 01:48:04,VALID,1000.16,VALID,0,VALID,87.8847,VALID,0,VALID,25.4363,VALID,35,VALID,0.444141,
2012-03-04, 01:49:04,VALID,1000.19,VALID,0,VALID,87.9228,VALID,0,VALID,25.3974,VALID,35,VALID,0.409375,
2012-03-04, 01:50:04,VALID,1000.17,VALID,0,VALID,88.0831,VALID,0,VALID,25.339,VALID,35,VALID,0.200781,
2012-03-04, 01:51:04,VALID,1000.16,VALID,0,VALID,88.6171,VALID,0,VALID,25.3195,VALID,30,VALID,0.699609,
2012-03-04, 01:52:04,VALID,1000.15,VALID,0,VALID,88.7162,VALID,0,VALID,25.337,VALID,9,VALID,0.272656,
2012-03-04, 01:53:04,VALID,1000.12,VALID,0,VALID,88.5866,VALID,0,VALID,25.3974,VALID,9,VALID,0.247656,
2012-03-04, 01:54:04,VALID,1000.1,VALID,0,VALID,88.5637,VALID,0.0815089,VALID,25.4149,VALID,9,VALID,0.41875,
2012-03-04, 01:55:04,VALID,1000.06,VALID,0,VALID,88.3653,VALID,0.0815089,VALID,25.4344,VALID,9,VALID,0.0121094,
2012-03-04, 01:56:04,VALID,1000.03,VALID,0,VALID,88.3958,VALID,0.0815089,VALID,25.4539,VALID,4,VALID,0.828516,
2012-03-04, 01:57:04,VALID,1000.03,VALID,0,VALID,88.2738,VALID,0.0815089,VALID,25.5123,VALID,22,VALID,0.0277344,
2012-03-04, 01:58:04,VALID,1000,VALID,0,VALID,87.9991,VALID,0.0815089,VALID,25.5532,VALID,22,VALID,0,
2012-03-04, 01:59:04,VALID,999.991,VALID,0,VALID,87.7855,VALID,0.0815089,VALID,25.5707,VALID,22,VALID,0,
2012-03-04, 02:00:04,VALID,999.982,VALID,0,VALID,87.7321,VALID,0.0815089,VALID,25.5727,VALID,22,VALID,0,
2012-03-04, 02:01:04,VALID,1000,VALID,0,VALID,87.694,VALID,0.0815089,VALID,25.5513,VALID,22,VALID,0.43125,
2012-03-04, 02:02:04,VALID,1000.04,VALID,0,VALID,87.8008,VALID,0.0815089,VALID,25.4734,VALID,22,VALID,0.664844,
2012-03-04, 02:03:04,VALID,1000.04,VALID,0,VALID,88.2738,VALID,0.0815089,VALID,25.4734,VALID,21,VALID,0.622656,
2012-03-04, 02:04:04,VALID,1000.07,VALID,0,VALID,88.0678,VALID,0.0815089,VALID,25.4734,VALID,22,VALID,0.345703,
2012-03-04, 02:05:04,VALID,1000.08,VALID,0,VALID,88.0754,VALID,0.0815089,VALID,25.4539,VALID,22,VALID,0.311328,
2012-03-04, 02:06:04,VALID,1000.05,VALID,0,VALID,88.3577,VALID,0,VALID,25.4344,VALID,31,VALID,0.662109,
2012-03-04, 02:07:04,VALID,1000.05,VALID,0,VALID,88.1975,VALID,0,VALID,25.4344,VALID,15,VALID,0.372656,
2012-03-04, 02:08:04,VALID,1000.09,VALID,0,VALID,88.2738,VALID,0,VALID,25.4344,VALID,15,VALID,0.506641,
2012-03-04, 02:09:04,VALID,1000.07,VALID,0,VALID,88.3195,VALID,0,VALID,25.3955,VALID,15,VALID,0.492969,
2012-03-04, 02:10:04,VALID,1000.04,VALID,0,VALID,88.4721,VALID,0,VALID,25.3974,VALID,15,VALID,0.512109,
2012-03-04, 02:11:04,VALID,1000.04,VALID,0,VALID,88.495,VALID,0,VALID,25.339,VALID,15,VALID,0.207813,
2012-03-04, 02:12:04,VALID,1000.05,VALID,0,VALID,88.8383,VALID,0,VALID,25.3,VALID,15,VALID,0.326172,
2012-03-04, 02:13:04,VALID,1000.06,VALID,0,VALID,89.0595,VALID,0,VALID,25.3195,VALID,52,VALID,0.222266,
2012-03-04, 02:14:04,VALID,1000.02,VALID,0,VALID,89.1206,VALID,0,VALID,25.3195,VALID,52,VALID,0.025,
2012-03-04, 02:15:04,VALID,1000.07,VALID,0,VALID,89.113,VALID,0,VALID,25.339,VALID,52,VALID,0.248828,
2012-03-04, 02:16:04,VALID,1000.1,VALID,0,VALID,89.3723,VALID,0,VALID,25.3604,VALID,46,VALID,0.798047,
2012-03-04, 02:17:04,VALID,1000.1,VALID,0,VALID,89.5325,VALID,0,VALID,25.3974,VALID,57,VALID,0.344141,
2012-03-04, 02:18:04,VALID,1000.08,VALID,0,VALID,89.7309,VALID,0,VALID,25.4558,VALID,83,VALID,1.8043,
2012-03-04, 02:19:04,VALID,1000.02,VALID,0.5,VALID,89.6546,VALID,0,VALID,25.4948,VALID,36,VALID,0.747656,
2012-03-04, 02:20:04,VALID,999.951,VALID,0,VALID,89.1816,VALID,0,VALID,25.4753,VALID,58,VALID,0.793359,
2012-03-04, 02:21:04,VALID,999.913,VALID,0,VALID,88.7697,VALID,0,VALID,25.4558,VALID,64,VALID,0.958984,
2012-03-04, 02:22:04,VALID,999.923,VALID,0,VALID,88.495,VALID,0,VALID,25.4363,VALID,73,VALID,1.30234,
2012-03-04, 02:23:04,VALID,999.909,VALID,0,VALID,88.6247,VALID,0,VALID,25.3974,VALID,91,VALID,1.11914,
2012-03-04, 02:24:04,VALID,999.919,VALID,0,VALID,88.6934,VALID,0,VALID,25.3176,VALID,60,VALID,0.944922,
2012-03-04, 02:25:04,VALID,999.916,VALID,0,VALID,88.4569,VALID,0,VALID,25.2592,VALID,32,VALID,1.01367,
2012-03-04, 02:26:04,VALID,999.871,VALID,0,VALID,88.3195,VALID,0,VALID,25.2397,VALID,61,VALID,0.886328,
2012-03-04, 02:27:04,VALID,999.812,VALID,0,VALID,88.2585,VALID,0,VALID,25.2007,VALID,58,VALID,1.27695,
2012-03-04, 02:28:04,VALID,999.809,VALID,0,VALID,88.434,VALID,0,VALID,25.1813,VALID,33,VALID,0.594531,
2012-03-04, 02:29:04,VALID,999.846,VALID,0,VALID,88.5866,VALID,0,VALID,25.1637,VALID,22,VALID,0.298438,
2012-03-04, 02:30:04,VALID,999.857,VALID,0,VALID,88.7544,VALID,0,VALID,25.1034,VALID,6,VALID,0.950781,
2012-03-04, 02:31:04,VALID,999.861,VALID,0,VALID,88.9146,VALID,0,VALID,25.1053,VALID,359,VALID,0.957812,
2012-03-04, 02:32:04,VALID,999.85,VALID,0,VALID,88.8078,VALID,0,VALID,25.0644,VALID,13,VALID,0.852734,
2012-03-04, 02:33:04,VALID,999.885,VALID,0,VALID,88.9985,VALID,0,VALID,25.0858,VALID,19,VALID,0.836719,
2012-03-04, 02:34:04,VALID,999.865,VALID,0,VALID,88.8612,VALID,0,VALID,25.0663,VALID,13,VALID,0.780859,
2012-03-04, 02:35:04,VALID,999.871,VALID,0,VALID,89.0748,VALID,0,VALID,25.0663,VALID,16,VALID,0.171875,
2012-03-04, 02:36:04,VALID,999.861,VALID,0,VALID,88.9985,VALID,0,VALID,25.0255,VALID,6,VALID,0.965234,
2012-03-04, 02:37:04,VALID,999.881,VALID,0,VALID,88.8917,VALID,0,VALID,25.0469,VALID,30,VALID,0.338672,
2012-03-04, 02:38:04,VALID,999.869,VALID,0,VALID,88.9146,VALID,0,VALID,25.0469,VALID,23,VALID,0.556641,
2012-03-04, 02:39:04,VALID,999.884,VALID,0,VALID,88.8765,VALID,0,VALID,25.0469,VALID,22,VALID,0.649609,
2012-03-04, 02:40:04,VALID,999.839,VALID,0,VALID,88.7544,VALID,0,VALID,25.0469,VALID,6,VALID,0.938672,
2012-03-04, 02:41:04,VALID,999.831,VALID,0,VALID,88.7773,VALID,0,VALID,25.006,VALID,5,VALID,0.730078,
2012-03-04, 02:42:04,VALID,999.774,VALID,0,VALID,88.7925,VALID,0,VALID,25.006,VALID,8,VALID,0.644922,
2012-03-04, 02:43:04,VALID,999.742,VALID,0,VALID,88.9909,VALID,0,VALID,25.006,VALID,10,VALID,0.460156,
2012-03-04, 02:44:04,VALID,999.741,VALID,0,VALID,88.9222,VALID,0,VALID,24.9885,VALID,11,VALID,1.02656,
2012-03-04, 02:45:04,VALID,999.738,VALID,0,VALID,89.0061,VALID,0,VALID,24.9866,VALID,13,VALID,0.321875,
2012-03-04, 02:46:04,VALID,999.733,VALID,0,VALID,89.0748,VALID,0,VALID,24.9885,VALID,7,VALID,0.800391,
2012-03-04, 02:47:04,VALID,999.721,VALID,0,VALID,89.2274,VALID,0,VALID,24.969,VALID,356,VALID,0.560938,
2012-03-04, 02:48:04,VALID,999.719,VALID,0,VALID,89.4181,VALID,0.0815089,VALID,24.9671,VALID,356,VALID,0.357812,
2012-03-04, 02:49:04,VALID,999.678,VALID,0,VALID,89.5783,VALID,0,VALID,24.9282,VALID,357,VALID,0.585938,
2012-03-04, 02:50:04,VALID,999.702,VALID,0,VALID,89.441,VALID,0,VALID,24.9282,VALID,10,VALID,1.05859,
2012-03-04, 02:51:04,VALID,999.688,VALID,0,VALID,89.4334,VALID,0,VALID,24.93,VALID,2,VALID,0.701953,
2012-03-04, 02:52:04,VALID,999.684,VALID,0,VALID,89.4105,VALID,0,VALID,24.93,VALID,2,VALID,0.550781,
2012-03-04, 02:53:04,VALID,999.671,VALID,0,VALID,89.5631,VALID,0,VALID,24.9282,VALID,9,VALID,0.795313,
2012-03-04, 02:54:04,VALID,999.657,VALID,0,VALID,89.7919,VALID,0,VALID,24.9476,VALID,1,VALID,1.0293,
2012-03-04, 02:55:05,VALID,999.646,VALID,0,VALID,89.708,VALID,0,VALID,25.0079,VALID,3,VALID,0.735156,
2012-03-04, 02:56:05,VALID,999.6,VALID,0,VALID,89.9369,VALID,0,VALID,24.9866,VALID,8,VALID,0.621094,
2012-03-04, 02:57:05,VALID,999.598,VALID,0,VALID,89.8911,VALID,0,VALID,25.006,VALID,1,VALID,0.511719,
2012-03-04, 02:58:05,VALID,999.546,VALID,0,VALID,90.2573,VALID,0,VALID,25.0274,VALID,18,VALID,1.14492,
2012-03-04, 02:59:05,VALID,999.52,VALID,0,VALID,90.4099,VALID,0,VALID,25.1637,VALID,21,VALID,1.22031,
2012-03-04, 03:00:05,VALID,999.539,VALID,0,VALID,90.0132,VALID,0,VALID,25.2416,VALID,8,VALID,0.547656,
2012-03-04, 03:01:05,VALID,999.518,VALID,0,VALID,89.7004,VALID,0,VALID,25.2786,VALID,11,VALID,1.10117,
2012-03-04, 03:02:05,VALID,999.499,VALID,0,VALID,89.4639,VALID,0,VALID,25.3176,VALID,36,VALID,0.595312,
2012-03-04, 03:03:05,VALID,999.513,VALID,0,VALID,89.2121,VALID,0,VALID,25.3,VALID,34,VALID,0.263281,
2012-03-04, 03:04:05,VALID,999.468,VALID,0,VALID,89.4334,VALID,0,VALID,25.2397,VALID,34,VALID,0.405859,
2012-03-04, 03:05:05,VALID,999.457,VALID,0,VALID,89.9216,VALID,0,VALID,25.2397,VALID,60,VALID,0.573438,
2012-03-04, 03:06:05,VALID,999.404,VALID,0,VALID,90.3107,VALID,0,VALID,25.2611,VALID,11,VALID,0.804688,
2012-03-04, 03:07:05,VALID,999.412,VALID,0,VALID,90.0055,VALID,0,VALID,25.2592,VALID,11,VALID,0.209766,
2012-03-04, 03:08:05,VALID,999.411,VALID,0,VALID,89.9216,VALID,0,VALID,25.2397,VALID,11,VALID,0.382422,
2012-03-04, 03:09:05,VALID,999.402,VALID,0,VALID,89.8682,VALID,0,VALID,25.1832,VALID,11,VALID,0.45625,
2012-03-04, 03:10:05,VALID,999.388,VALID,0,VALID,89.8682,VALID,0,VALID,25.1637,VALID,11,VALID,0.355078,
2012-03-04, 03:11:05,VALID,999.39,VALID,0,VALID,90.0055,VALID,0,VALID,25.0644,VALID,11,VALID,0.323438,
2012-03-04, 03:12:05,VALID,999.382,VALID,0,VALID,90.2344,VALID,0,VALID,25.006,VALID,11,VALID,0.260938,
2012-03-04, 03:13:05,VALID,999.368,VALID,0,VALID,90.8142,VALID,0,VALID,24.9885,VALID,11,VALID,0.631641,
2012-03-04, 03:14:05,VALID,999.402,VALID,0,VALID,90.7837,VALID,0,VALID,24.9885,VALID,11,VALID,0.0449219,
2012-03-04, 03:15:05,VALID,999.37,VALID,0,VALID,90.982,VALID,0,VALID,24.9476,VALID,11,VALID,0,
2012-03-04, 03:16:05,VALID,999.349,VALID,0,VALID,91.0431,VALID,0,VALID,24.9709,VALID,11,VALID,0,
2012-03-04, 03:17:05,VALID,999.367,VALID,0,VALID,91.1499,VALID,0,VALID,24.9495,VALID,11,VALID,0,
2012-03-04, 03:18:05,VALID,999.382,VALID,0,VALID,91.3787,VALID,0,VALID,24.93,VALID,11,VALID,0,
2012-03-04, 03:19:05,VALID,999.386,VALID,0,VALID,91.5313,VALID,0,VALID,24.9106,VALID,11,VALID,0,
2012-03-04, 03:20:05,VALID,999.432,VALID,0,VALID,91.5923,VALID,0,VALID,24.9106,VALID,11,VALID,0.671484,
2012-03-04, 03:21:05,VALID,999.419,VALID,0,VALID,91.5466,VALID,0,VALID,24.8911,VALID,11,VALID,0.296484,
2012-03-04, 03:22:05,VALID,999.431,VALID,0,VALID,91.6076,VALID,0,VALID,24.893,VALID,11,VALID,0.289063,
2012-03-04, 03:23:05,VALID,999.413,VALID,0,VALID,91.7144,VALID,0,VALID,24.8716,VALID,11,VALID,0.492969,
2012-03-04, 03:24:05,VALID,999.42,VALID,0,VALID,91.9433,VALID,0,VALID,24.8735,VALID,359,VALID,1.01172,
2012-03-04, 03:25:05,VALID,999.429,VALID,0,VALID,92.6146,VALID,0,VALID,24.9514,VALID,19,VALID,0.772656,
2012-03-04, 03:26:05,VALID,999.415,VALID,0,VALID,92.2561,VALID,0,VALID,24.9866,VALID,53,VALID,0.844141,
2012-03-04, 03:27:05,VALID,999.43,VALID,0,VALID,92.1645,VALID,0,VALID,25.1267,VALID,28,VALID,0.653125,
2012-03-04, 03:28:05,VALID,999.466,VALID,0,VALID,92.0043,VALID,0,VALID,25.1851,VALID,15,VALID,0.420312,
2012-03-04, 03:29:05,VALID,999.486,VALID,0,VALID,91.7831,VALID,0,VALID,25.1832,VALID,360,VALID,0.580859,
2012-03-04, 03:30:05,VALID,999.463,VALID,0,VALID,91.6686,VALID,0,VALID,25.263,VALID,13,VALID,0.130078,
2012-03-04, 03:31:05,VALID,999.496,VALID,0,VALID,91.455,VALID,0,VALID,25.2806,VALID,30,VALID,0.778516,
2012-03-04, 03:32:05,VALID,999.539,VALID,0,VALID,91.2567,VALID,0,VALID,25.2981,VALID,60,VALID,0.841406,
2012-03-04, 03:33:05,VALID,999.542,VALID,0,VALID,91.0354,VALID,0,VALID,25.339,VALID,39,VALID,0.225781,
2012-03-04, 03:34:05,VALID,999.573,VALID,0,VALID,90.8295,VALID,0,VALID,25.3584,VALID,39,VALID,0,
2012-03-04, 03:35:05,VALID,999.572,VALID,0,VALID,90.715,VALID,0,VALID,25.3779,VALID,82,VALID,0.700781,
2012-03-04, 03:36:05,VALID,999.61,VALID,0,VALID,90.5243,VALID,0,VALID,25.4383,VALID,77,VALID,0.402734,
2012-03-04, 03:37:05,VALID,999.594,VALID,0,VALID,90.3031,VALID,0,VALID,25.4169,VALID,76,VALID,0,
2012-03-04, 03:38:05,VALID,999.596,VALID,0,VALID,90.1963,VALID,0,VALID,25.4188,VALID,76,VALID,0,
2012-03-04, 03:39:05,VALID,999.636,VALID,0,VALID,90.1657,VALID,0,VALID,25.3974,VALID,76,VALID,0,
2012-03-04, 03:40:05,VALID,999.618,VALID,0,VALID,90.12,VALID,0,VALID,25.3993,VALID,76,VALID,0,
2012-03-04, 03:41:05,VALID,999.636,VALID,0,VALID,90.1276,VALID,0,VALID,25.3604,VALID,76,VALID,0,
2012-03-04, 03:42:05,VALID,999.63,VALID,0,VALID,90.1657,VALID,0,VALID,25.3584,VALID,76,VALID,0,
2012-03-04, 03:43:05,VALID,999.649,VALID,0,VALID,90.1352,VALID,0,VALID,25.3604,VALID,76,VALID,0,
2012-03-04, 03:44:05,VALID,999.626,VALID,0,VALID,90.1505,VALID,0,VALID,25.3,VALID,61,VALID,0,
2012-03-04, 03:45:05,VALID,999.619,VALID,0,VALID,90.1734,VALID,0,VALID,25.2825,VALID,32,VALID,0.188281,
2012-03-04, 03:46:05,VALID,999.606,VALID,0,VALID,90.1123,VALID,0,VALID,25.2825,VALID,27,VALID,0.620703,